Location: Gugi
(45.4667°N, 11.1000°E)
Time: 21:08:28
(UTC+00:00)

Ariane Rocket - Pass Details

Date: 17 November 2019
Orbit: 759 x 771 km, 98.7° (Epoch: 11 December)

Event Time Altitude Azimuth Distance (km) Brightness Sun altitude
Exits shadow 17:40:34 37° 52° (NE) 1,180 3.5 -20.3°
Drops below altitude 10° 17:44:42 10° 0° (N) 2,315 5.4 -21.1°
Sets 17:47:08 0° 353° (N) 3,244 6.3 -21.5°
